Location: Poughquag
(41.6090°N, 73.6820°W)
Time: 14:19:06
(UTC-05:00)

S-56A Canister/Altair - Pass Details

Date: 01 December 2023
Orbit: 640 x 2488 km, 38.9° (Epoch: 26 February)

Event Time Altitude Azimuth Distance (km) Brightness Sun altitude
Rises 18:41:32 0° 273° (W) 3,535 12.2 -24.8°
Reaches altitude 10° 18:44:18 10° 259° (W) 2,809 11.5 -25.4°
Maximum altitude 18:49:34 24° 209° (SSW) 2,380 10.3 -26.3°
Drops below altitude 10° 18:56:32 10° 161° (SSE) 3,823 10.9 -27.6°
Sets 19:01:08 0° 149° (SSE) 5,163 11.5 -28.5°
